Location: Tyumen
(57.1527°N, 65.5323°E)
Time: 05:17:01
(UTC+05:00)

ISS - Pass Details

Date: 02 December 2021
Orbit: 413 x 422 km, 51.6° (Epoch: 22 January)

Event Time Altitude Azimuth Distance (km) Brightness Sun altitude
Rises 17:06:58 0° 254° (WSW) 2,385 2.0 -8.2°
Reaches altitude 10° 17:09:12 10° 245° (WSW) 1,518 0.8 -8.4°
Maximum altitude 17:12:17 32° 180° (S) 751 -2.2 -8.8°
Drops below altitude 10° 17:15:22 10° 115° (ESE) 1,513 -1.3 -9.2°
Enters shadow 17:16:22 - 109° (ESE) 1,896 -0.8 -9.3°
